AT160 Weather Reports


time (UTC)temp
F
wind
direction
speed
knots
gust
knots
rain 1hr
in
rain 24hr
in
rain mn
in
humidity
%
barometer
mb
20260507132831 68 30 1.7 4.3 0.00 0.00 0.00 73 1016.0
20260507132316 68 47 0.9 4.3 0.00 0.00 0.00 73 1016.0
20260507131311 67 38 0.0 4.3 0.00 0.00 0.00 74 1016.0
20260507130813 67 40 0.0 4.3 0.00 0.00 0.00 74 1016.0
20260507130311 68 40 0.0 2.6 0.00 0.00 0.00 74 1016.0
20260507125810 68 11 0.0 0.9 0.00 0.00 0.00 75 1016.5
20260507125309 67 11 0.0 0.9 0.00 0.00 0.00 75 1016.5
20260507124755 67 11 0.0 2.6 0.00 0.00 0.00 75 1016.5
20260507124619 67 11 0.9 4.3 0.00 0.00 0.00 75 1016.7
20260507123738 67 0 0.9 4.3 0.00 0.00 0.00 76 1016.7
20260507123231 66 347 0.9 4.3 0.00 0.00 0.00 76 1016.7
20260507122853 66 312 1.7 5.2 0.00 0.00 0.00 75 1016.2
20260507122716 66 329 0.9 4.3 0.00 0.00 0.00 76 1016.2
20260507121704 66 346 2.6 5.2 0.00 0.00 0.00 76 1016.2
20260507121204 66 359 2.6 6.1 0.00 0.00 0.00 76 1016.8
20260507120655 66 25 1.7 6.1 0.00 0.00 0.00 75 1016.8
20260507120155 66 25 1.7 5.2 0.00 0.00 0.00 76 1016.8
20260507115656 66 0 1.7 6.1 0.00 0.00 0.00 77 1017.4
20260507115149 66 304 1.7 6.1 0.00 0.00 0.00 77 1017.4
20260507114822 65 17 2.6 6.1 0.00 0.00 0.00 80 1017.4
20260507114647 66 311 1.7 6.1 0.00 0.00 0.00 80 1017.4
20260507113653 65 6 2.6 6.1 0.00 0.00 0.00 81 1017.4
20260507113146 65 357 1.7 6.1 0.00 0.00 0.00 82 1017.4
20260507112643 66 350 0.9 6.1 0.00 0.00 0.00 84 1017.3
20260507112149 66 337 0.9 4.3 0.00 0.00 0.00 83 1017.3
20260507111649 66 356 0.9 4.3 0.00 0.00 0.00 82 1017.3
20260507111120 66 346 0.9 4.3 0.00 0.00 0.00 82 1017.4
20260507110616 66 350 0.9 2.6 0.00 0.00 0.00 80 1017.4
20260507110605 66 339 0.9 2.6 0.00 0.00 0.00 80 1017.4
20260507105554 66 343 0.9 4.3 0.00 0.00 0.00 79 1017.4
20260507105046 66 332 0.9 4.3 0.00 0.00 0.00 77 1017.4
20260507104542 66 344 0.9 4.3 0.00 0.00 0.00 77 1017.4
20260507104048 66 325 0.9 4.3 0.00 0.00 0.00 75 1017.4
20260507103536 66 311 1.7 5.2 0.00 0.00 0.00 75 1017.4
20260507103026 66 313 1.7 5.2 0.00 0.00 0.00 73 1017.4
20260507102518 66 342 0.9 4.3 0.00 0.00 0.00 73 1017.2
20260507102007 67 330 0.9 5.2 0.00 0.00 0.00 71 1017.2
20260507101857 67 340 0.9 5.2 0.00 0.00 0.00 71 1017.2
20260507100958 67 7 0.0 4.3 0.00 0.00 0.00 72 1017.2
20260507100637 67 0 0.9 4.3 0.00 0.00 0.00 71 1017.1
20260507100523 67 21 0.0 2.6 0.00 0.00 0.00 72 1017.2
20260507100219 67 354 2.6 5.2 0.00 0.00 0.00 69 1017.0
20260507100031 67 3 0.0 2.6 0.00 0.00 0.00 72 1017.2
20260507095821 67 10 1.7 4.3 0.00 0.00 0.00 70 1017.1
20260507093904 67 342 2.6 6.1 0.00 0.00 0.00 69 1017.0
20260507093402 67 1 2.6 6.1 0.00 0.00 0.00 69 1017.0
20260507092900 67 325 1.7 6.1 0.00 0.00 0.00 69 1016.9
20260507092528 67 0 1.7 6.1 0.00 0.00 0.00 69 1016.9
20260507092402 67 330 1.7 5.2 0.00 0.00 0.00 69 1016.9
20260507091812 67 357 1.7 6.1 0.00 0.00 0.00 69 1016.5
20260507090856 67 0 1.7 5.2 0.00 0.00 0.00 70 1016.5
20260507090348 67 323 1.7 5.2 0.00 0.00 0.00 70 1016.5
20260507085816 67 10 1.7 6.1 0.00 0.00 0.00 70 1016.3
20260507085335 67 8 1.7 6.1 0.00 0.00 0.00 70 1016.3
20260507084845 67 0 1.7 5.2 0.00 0.00 0.00 71 1016.3
20260507084312 67 17 2.6 5.2 0.00 0.00 0.00 70 1016.1
20260507083811 67 10 1.7 5.2 0.00 0.00 0.00 70 1016.1
20260507083318 67 27 2.6 6.1 0.00 0.00 0.00 70 1016.1
20260507082844 67 1 2.6 6.1 0.00 0.00 0.00 69 1016.0
20260507082315 68 0 1.7 7.0 0.00 0.00 0.00 69 1016.0
20260507081810 68 0 1.7 7.0 0.00 0.00 0.00 68 1016.0
20260507081313 68 1 0.9 5.2 0.00 0.00 0.00 67 1016.0
20260507080811 68 13 1.7 5.2 0.00 0.00 0.00 66 1016.0
20260507080308 68 0 1.7 5.2 0.00 0.00 0.00 66 1016.0
20260507075811 68 325 0.9 4.3 0.00 0.00 0.00 67 1015.9
20260507075308 68 292 0.9 4.3 0.00 0.00 0.00 67 1015.9
20260507074928 68 1 1.7 5.2 0.00 0.00 0.00 68 1015.8
20260507074528 67 359 2.6 6.1 0.00 0.00 0.00 69 1015.8
20260507074001 67 264 1.7 6.1 0.00 0.00 0.00 70 1015.8
20260507073430 67 289 0.9 5.2 0.00 0.00 0.00 71 1015.8
20260507072843 67 282 1.7 6.1 0.00 0.00 0.00 74 1015.9
20260507072340 66 343 1.7 6.1 0.00 0.00 0.00 74 1015.9
20260507071803 66 284 2.6 7.0 0.00 0.00 0.00 75 1015.9
20260507071257 66 313 2.6 7.8 0.00 0.00 0.00 76 1015.8
20260507070752 65 315 2.6 7.8 0.00 0.00 0.00 78 1015.8
20260507070254 65 350 1.7 5.2 0.00 0.00 0.00 79 1015.8
20260507065745 65 339 0.9 5.2 0.00 0.00 0.00 81 1015.7
20260507065252 65 0 1.7 5.2 0.00 0.00 0.00 82 1015.7
20260507065125 64 0 1.7 6.1 0.00 0.00 0.00 82 1015.9
20260507064939 64 357 0.9 5.2 0.00 0.00 0.00 82 1015.9
20260507064928 64 25 0.0 5.2 0.00 0.00 0.00 83 1015.9
20260507064742 64 339 2.6 6.1 0.00 0.00 0.00 82 1015.7
20260507062742 64 16 0.9 2.6 0.00 0.00 0.00 83 1015.9
20260507062234 64 7 0.9 3.5 0.00 0.00 0.00 83 1015.9
20260507061726 64 6 0.9 5.2 0.00 0.00 0.00 83 1015.9
20260507061239 64 28 1.7 5.2 0.00 0.00 0.00 83 1015.8
20260507061111 62 0 2.6 6.1 0.00 0.00 0.00 86 1015.6
20260507060742 63 18 1.7 5.2 0.00 0.00 0.00 83 1015.8
20260507060306 63 0 1.7 5.2 0.00 0.00 0.00 83 1015.8
20260507055816 63 34 1.7 5.2 0.00 0.00 0.00 83 1015.7
20260507055239 63 30 1.7 5.2 0.00 0.00 0.00 85 1015.7
20260507054807 63 37 2.6 5.2 0.00 0.00 0.00 85 1015.7
20260507053921 62 21 2.6 6.1 0.00 0.00 0.00 86 1015.6
20260507053302 62 16 2.6 5.2 0.00 0.00 0.00 86 1015.6
20260507052907 61 21 1.7 4.3 0.00 0.00 0.00 86 1015.4
20260507052733 62 18 1.7 4.3 0.00 0.00 0.00 86 1015.4
20260507051723 61 10 0.9 4.3 0.00 0.00 0.00 87 1015.4
20260507051219 61 23 0.9 3.5 0.00 0.00 0.00 87 1015.4
20260507050711 61 13 0.0 0.9 0.00 0.00 0.00 88 1015.4
20260507050200 60 13 0.0 0.0 0.00 0.00 0.00 89 1015.3
20260507045703 60 14 0.0 0.0 0.00 0.00 0.00 89 1015.2
20260507045153 59 32 0.0 0.0 0.00 0.00 0.00 88 1015.2
20260507044659 59 28 0.0 0.0 0.00 0.00 0.00 88 1015.2
20260507044217 59 23 0.0 0.0 0.00 0.00 0.00 88 1015.0
20260507043643 59 14 0.0 0.0 0.00 0.00 0.00 89 1015.0
20260507043133 59 13 0.0 0.0 0.00 0.00 0.00 89 1015.0
20260507042622 59 13 0.0 0.0 0.00 0.00 0.00 89 1015.2
20260507042125 59 41 0.0 0.0 0.00 0.00 0.00 90 1015.2
20260507041625 58 30 0.0 0.0 0.00 0.00 0.00 89 1015.2
20260507041502 58 13 0.0 0.0 0.00 0.00 0.00 89 1014.9
20260507040845 58 13 0.0 0.0 0.00 0.00 0.00 89 1014.9
20260507040114 57 13 0.0 0.0 0.00 0.00 0.00 88 1014.9
20260507035932 57 13 0.0 2.6 0.00 0.00 0.00 84 1014.6
20260507035902 58 285 0.0 0.0 0.00 0.00 0.00 85 1014.4
20260507035654 57 13 0.0 0.9 0.00 0.00 0.00 88 1014.8
20260507035331 57 359 0.0 0.9 0.00 0.00 0.00 88 1014.8
20260507034825 57 0 0.0 1.7 0.00 0.00 0.00 87 1014.8
20260507034514 57 0 0.0 1.7 0.00 0.00 0.00 87 1014.8
20260507034219 57 349 0.0 0.0 0.00 0.00 0.00 86 1014.8
20260507033924 57 349 0.0 2.6 0.00 0.00 0.00 86 1014.8
20260507033605 57 349 0.0 2.6 0.00 0.00 0.00 86 1014.7
20260507033155 57 359 0.9 2.6 0.00 0.00 0.00 85 1014.7
20260507032202 57 326 0.0 1.7 0.00 0.00 0.00 84 1014.6
20260507030949 57 13 0.0 2.6 0.00 0.00 0.00 84 1014.6
20260507030510 57 295 0.0 0.0 0.00 0.00 0.00 84 1014.4
20260507025339 57 285 0.0 0.0 0.00 0.00 0.00 84 1014.4
20260507024825 58 285 0.0 0.0 0.00 0.00 0.00 84 1014.4
20260507023310 58 285 0.0 0.0 0.00 0.00 0.00 85 1014.4
20260507022654 58 282 0.0 0.0 0.00 0.00 0.00 85 1014.3
20260507022225 58 282 0.0 0.0 0.00 0.00 0.00 86 1014.3
20260507021623 58 282 0.0 0.0 0.00 0.00 0.00 86 1014.3
20260507021121 59 282 0.0 0.0 0.00 0.00 0.00 86 1014.3
20260507020602 59 282 0.0 0.0 0.00 0.00 0.00 86 1014.3
20260507020107 59 282 0.0 0.0 0.00 0.00 0.00 87 1014.3
20260507015547 59 282 0.0 0.0 0.00 0.00 0.00 88 1014.2
20260507015030 59 288 0.0 0.0 0.00 0.00 0.00 89 1014.2
20260507014529 58 306 0.0 0.0 0.00 0.00 0.00 89 1014.2
20260507014023 58 309 0.0 0.9 0.00 0.00 0.00 89 1014.2
20260507013521 58 311 0.0 0.9 0.00 0.00 0.00 90 1014.2
20260507013022 58 306 0.0 1.7 0.00 0.00 0.00 90 1014.2
20260507012522 58 308 0.0 1.7 0.00 0.00 0.00 91 1014.1
20260507012019 58 301 0.0 0.0 0.00 0.00 0.00 91 1014.1
20260507011507 58 305 0.0 0.9 0.00 0.00 0.00 91 1014.1
20260507011245 59 304 0.0 0.9 0.00 0.00 0.00 91 1014.1
20260507010945 59 301 0.0 0.0 0.00 0.00 0.00 92 1014.1
20260507005957 59 304 0.0 0.9 0.00 0.00 0.00 92 1014.1
20260507005459 59 295 0.0 0.9 0.00 0.00 0.00 92 1013.9
20260507004952 59 298 0.0 0.0 0.00 0.00 0.00 92 1013.9
20260507004450 58 298 0.0 0.0 0.00 0.00 0.00 92 1013.9
20260507003954 58 298 0.0 0.9 0.00 0.00 0.00 91 1013.9
20260507003444 58 296 0.0 0.9 0.00 0.00 0.00 92 1013.9
20260507002940 59 299 0.0 0.0 0.00 0.00 0.00 91 1013.9
20260507002450 59 302 0.0 0.0 0.00 0.00 0.00 92 1013.8
20260507001954 59 298 0.0 0.0 0.00 0.00 0.00 92 1013.8
20260507001439 59 302 0.0 0.0 0.00 0.00 0.00 91 1013.8
20260507000934 59 304 0.0 0.0 0.00 0.00 0.00 91 1013.8
20260507000435 59 302 0.0 0.0 0.00 0.00 0.00 91 1013.8
20260506235602 59 304 0.0 1.7 0.00 0.00 0.00 90 1013.8
20260506235100 59 302 0.0 0.0 0.00 0.00 0.00 90 1013.8
20260506234556 59 302 0.0 0.0 0.00 0.00 0.00 90 1013.8
20260506234101 59 294 0.0 0.0 0.00 0.00 0.00 89 1013.9
20260506233940 60 294 0.0 0.0 0.00 0.00 0.00 90 1013.9
20260506233628 60 294 0.0 0.0 0.00 0.00 0.00 90 1013.9
20260506232529 59 295 0.0 0.0 0.00 0.00 0.00 90 1014.2
20260506232039 59 304 0.0 0.0 0.00 0.00 0.00 89 1014.2
20260506232012 59 296 0.0 2.6 0.00 0.00 0.00 89 1014.2
20260506231036 59 302 0.0 2.6 0.00 0.00 0.00 89 1014.3
20260506230530 59 294 0.0 1.7 0.00 0.00 0.00 89 1014.3
20260506230450 59 305 0.0 1.7 0.00 0.00 0.00 88 1014.3
20260506225514 58 291 0.0 1.7 0.00 0.00 0.00 88 1014.3
20260506225015 58 272 0.0 1.7 0.00 0.00 0.00 87 1014.3
20260506224513 58 267 0.0 1.7 0.00 0.00 0.00 87 1014.3
20260506224015 58 264 0.0 1.7 0.00 0.00 0.00 86 1014.2
20260506223522 58 267 0.0 0.9 0.00 0.00 0.00 86 1014.2
20260506223345 58 246 0.0 1.7 0.00 0.00 0.00 84 1014.3
20260506223049 58 285 0.0 0.9 0.00 0.00 0.00 85 1014.2
20260506222527 58 263 0.0 0.0 0.00 0.00 0.00 85 1014.3
20260506222012 58 246 0.0 0.0 0.00 0.00 0.00 85 1014.3
20260506221004 58 264 0.0 1.7 0.00 0.00 0.00 83 1014.3
20260506220502 58 284 0.0 1.7 0.00 0.00 0.00 82 1014.3
20260506220005 58 247 0.0 1.7 0.00 0.00 0.00 82 1014.3
20260506215505 58 268 0.0 0.0 0.00 0.00 0.00 81 1014.2
20260506215002 58 250 0.0 0.0 0.00 0.00 0.00 81 1014.2
20260506214617 58 270 0.0 1.7 0.00 0.00 0.00 80 1014.1
20260506214500 58 246 0.0 0.0 0.00 0.00 0.00 81 1014.2
20260506213447 58 253 0.0 1.7 0.00 0.00 0.00 80 1014.1
20260506212950 59 267 0.0 2.6 0.00 0.00 0.00 80 1014.1
20260506212450 59 256 0.9 2.6 0.00 0.00 0.00 79 1014.1
20260506211939 59 250 0.0 1.7 0.00 0.00 0.00 79 1014.1
20260506211441 59 243 0.0 1.7 0.00 0.00 0.00 78 1014.1
20260506211238 60 271 0.0 0.0 0.00 0.00 0.00 77 1014.1
20260506210950 59 246 0.0 1.7 0.00 0.00 0.00 78 1014.1
20260506205939 60 248 0.0 1.7 0.00 0.00 0.00 77 1014.2
20260506205434 61 236 0.0 1.7 0.00 0.00 0.00 76 1014.3
20260506204922 61 198 0.0 0.0 0.00 0.00 0.00 76 1014.3
20260506204416 61 232 0.0 0.0 0.00 0.00 0.00 76 1014.4
20260506203900 61 232 0.0 0.0 0.00 0.00 0.00 76 1014.4
20260506203831 60 232 0.0 0.0 0.00 0.00 0.00 76 1014.4
20260506202902 60 232 0.0 0.0 0.00 0.00 0.00 76 1014.2
20260506202353 60 232 0.0 0.0 0.00 0.00 0.00 77 1014.2
20260506202307 60 230 0.0 0.0 0.00 0.00 0.00 77 1014.2
20260506201339 61 234 0.0 0.0 0.00 0.00 0.00 77 1014.2
20260506200840 61 232 0.0 0.0 0.00 0.00 0.00 77 1014.2
20260506200334 61 236 0.0 0.0 0.00 0.00 0.00 78 1014.2
20260506195834 61 233 0.0 0.0 0.00 0.00 0.00 78 1013.8
20260506195345 61 240 0.0 0.0 0.00 0.00 0.00 78 1013.8
20260506194831 61 236 0.0 0.0 0.00 0.00 0.00 78 1013.8
20260506194333 61 239 0.0 0.0 0.00 0.00 0.00 78 1013.7
20260506193829 61 232 0.0 0.0 0.00 0.00 0.00 79 1013.7
20260506193319 61 229 0.0 1.7 0.00 0.00 0.00 79 1013.7
20260506192810 61 229 0.0 1.7 0.00 0.00 0.00 79 1013.4
20260506192257 61 223 0.0 0.0 0.00 0.00 0.00 80 1013.4
20260506191711 61 232 0.0 0.9 0.00 0.00 0.00 80 1013.4
20260506191227 61 232 0.0 1.7 0.00 0.00 0.00 81 1013.5
20260506190723 61 219 0.0 2.6 0.00 0.00 0.00 82 1013.5
20260506190209 61 230 0.0 2.6 0.00 0.00 0.00 83 1013.5
20260506185702 61 241 0.0 1.7 0.00 0.00 0.00 83 1013.4
20260506185203 61 241 0.0 1.7 0.00 0.00 0.00 84 1013.4
20260506184703 61 243 0.0 1.7 0.00 0.00 0.00 84 1013.4
20260506184149 62 234 0.0 2.6 0.00 0.00 0.00 84 1013.2
20260506183652 62 217 0.0 2.6 0.00 0.00 0.00 84 1013.2
20260506183145 62 236 0.0 0.9 0.00 0.00 0.00 84 1013.2
20260506182637 62 236 0.0 1.7 0.00 0.00 0.00 84 1012.8
20260506182109 62 234 0.0 2.6 0.00 0.00 0.00 84 1012.8
20260506181534 62 193 0.0 0.9 0.00 0.00 0.00 83 1012.8
20260506181013 62 226 0.0 4.3 0.00 0.00 0.00 83 1012.7
20260506180517 62 145 0.0 4.3 0.00 0.00 0.00 83 1012.7
20260506175954 62 234 0.9 5.2 0.00 0.00 0.00 82 1012.7
20260506175459 63 158 0.9 5.2 0.00 0.00 0.00 82 1012.5
20260506174952 63 206 0.9 2.6 0.00 0.00 0.00 82 1012.5
20260506174847 63 202 0.0 2.6 0.00 0.00 0.00 81 1012.5
20260506173942 63 169 0.0 4.3 0.00 0.00 0.00 81 1012.4
20260506173436 64 220 0.9 4.3 0.00 0.00 0.00 80 1012.4
20260506172929 64 222 0.9 4.3 0.00 0.00 0.00 79 1012.4
20260506172427 64 205 0.9 5.2 0.00 0.00 0.00 77 1012.3
20260506171925 64 191 0.9 5.2 0.00 0.00 0.00 76 1012.3
20260506171417 65 193 0.9 5.2 0.00 0.00 0.00 74 1012.3
20260506170905 65 192 0.9 6.1 0.00 0.00 0.00 73 1012.3
20260506170400 65 184 0.9 6.1 0.00 0.00 0.00 71 1012.3
20260506165856 65 181 0.9 4.3 0.00 0.00 0.00 69 1012.3
20260506165559 66 162 1.7 5.2 0.00 0.00 0.00 65 1012.3
20260506165405 66 192 0.9 5.2 0.00 0.00 0.00 67 1012.3
20260506164404 66 209 1.7 6.1 0.00 0.00 0.00 63 1012.3
20260506164107 67 212 2.6 7.0 0.00 0.00 0.00 61 1012.4
20260506163904 67 202 2.6 7.0 0.00 0.00 0.00 62 1012.4
20260506162853 67 202 1.7 9.6 0.00 0.00 0.00 60 1012.4
20260506162604 68 198 1.7 5.2 0.00 0.00 0.00 58 1012.4
20260506162407 67 171 1.7 9.6 0.00 0.00 0.00 60 1012.4
20260506161335 68 212 2.6 8.7 0.00 0.00 0.00 58 1012.5
20260506160846 69 176 1.7 8.7 0.00 0.00 0.00 58 1012.5
20260506160559 69 174 0.9 5.2 0.00 0.00 0.00 58 1012.6
20260506160338 69 158 0.9 6.1 0.00 0.00 0.00 58 1012.5
20260506155811 69 158 0.9 6.1 0.00 0.00 0.00 60 1012.6
20260506154949 70 160 0.9 5.2 0.00 0.00 0.00 60 1012.7
20260506154833 70 128 0.9 6.1 0.00 0.00 0.00 60 1012.6
20260506154130 70 175 1.7 12.2 0.00 0.00 0.00 60 1012.7
20260506153847 70 206 0.9 2.6 0.00 0.00 0.00 60 1012.7
20260506153326 70 143 1.7 12.2 0.00 0.00 0.00 60 1012.7
20260506152336 70 181 0.9 6.1 0.00 0.00 0.00 60 1012.7
20260506151830 70 138 0.9 6.1 0.00 0.00 0.00 60 1012.7
20260506151538 71 182 1.7 7.0 0.00 0.00 0.00 62 1012.7
20260506151328 71 128 1.7 7.0 0.00 0.00 0.00 61 1012.7
20260506150321 70 123 1.7 6.1 0.00 0.00 0.00 63 1012.7
20260506145818 70 186 2.6 7.0 0.00 0.00 0.00 63 1012.6
20260506145617 71 143 2.6 8.7 0.00 0.00 0.00 62 1012.6
20260506145327 70 134 2.6 7.0 0.00 0.00 0.00 63 1012.6
20260506144319 71 184 1.7 8.7 0.00 0.00 0.00 62 1012.7
20260506143811 71 162 1.7 6.1 0.00 0.00 0.00 62 1012.7
20260506143521 71 136 2.6 7.0 0.00 0.00 0.00 61 1012.8
20260506143311 71 147 2.6 6.1 0.00 0.00 0.00 62 1012.7
20260506142307 71 116 2.6 7.0 0.00 0.00 0.00 61 1012.8
20260506141809 70 144 2.6 6.1 0.00 0.00 0.00 62 1012.8
20260506141449 70 152 2.6 7.0 0.00 0.00 0.00 64 1012.8
20260506141305 70 150 2.6 7.0 0.00 0.00 0.00 62 1012.8
20260506140309 70 59 3.5 7.8 0.00 0.00 0.00 64 1012.8
20260506135805 70 162 3.5 8.7 0.00 0.00 0.00 64 1012.9
20260506135619 71 160 3.5 6.1 0.00 0.00 0.00 60 1012.9
20260506135319 70 131 3.5 7.0 0.00 0.00 0.00 62 1012.9
20260506134301 71 155 2.6 6.1 0.00 0.00 0.00 60 1013.0
20260506133805 70 126 2.6 6.1 0.00 0.00 0.00 60 1013.0
20260506133257 71 161 1.7 6.1 0.00 0.00 0.00 64 1013.0